Theta_e
303 302 304 303 302 303 303 303 303 303 303 304 304 303 303 303 302 300 300 304 305 306 306 304 310 310 308 311 310 311 313 313 311 310 310 311 311 312 312 313 313 312 311 311 321
302 302 302 301 301 301 302 302 302 302 303 303 303 303 302 302 301 299 304 307 304 304 304 303 303 307 310 310 309 312 313 312 310 310 310 310 310 311 311 312 311 310 310 311 319
303 303 303 301 302 301 301 301 302 302 302 302 302 301 302 301 299 306 306 306 302 300 300 301 302 303 304 308 310 309 313 311 311 310 309 309 309 309 309 310 312 311 309 310 313
302 302 302 301 301 302 301 301 301 302 302 301 301 301 301 299 297 301 300 299 298 296 296 297 299 300 303 302 305 308 309 309 310 310 309 308 308 308 308 308 311 311 310 311 311
300 300 300 301 301 301 302 301 301 301 301 300 300 300 299 297 297 297 296 295 296 297 298 298 297 298 299 299 299 299 302 306 308 308 308 308 308 307 307 308 310 310 310 310 310
301 301 300 300 300 301 300 301 301 301 300 299 299 299 296 295 297 296 294 298 297 296 296 297 298 298 298 299 299 299 299 300 301 304 307 307 307 306 306 307 308 308 308 309 310
301 300 300 300 300 300 300 300 300 300 299 298 298 296 295 295 295 294 296 296 295 295 295 295 296 297 298 299 298 298 299 299 299 298 302 305 308 309 306 306 307 308 309 308 309
299 299 300 300 299 299 299 299 299 298 297 297 296 295 295 295 294 294 295 294 294 295 295 294 295 295 296 296 297 297 297 298 299 300 301 301 305 307 308 307 307 307 307 308 309
299 300 299 299 299 299 299 298 297 297 296 294 294 294 294 293 293 293 294 294 295 295 294 294 295 296 296 295 295 295 297 296 297 298 299 300 302 303 307 308 307 307 307 307 307
299 298 299 298 298 298 298 297 295 295 293 294 294 295 295 292 293 293 293 294 294 295 295 295 296 296 296 296 296 295 294 295 296 297 299 297 298 301 303 306 306 307 307 307 306
299 298 298 298 298 298 298 295 294 294 293 294 293 294 294 293 293 294 293 294 294 294 294 294 295 296 297 296 297 297 296 297 297 297 297 297 297 299 299 304 305 307 305 307 307
298 298 298 298 298 298 296 294 294 293 295 293 294 293 293 292 292 293 294 294 294 295 295 296 296 296 296 296 296 297 296 295 295 295 294 294 295 297 298 299 300 302 304 306 306
298 298 297 298 297 296 295 295 294 294 293 293 294 293 293 293 292 293 294 294 294 295 296 297 296 296 296 296 296 296 296 296 295 294 294 294 294 295 296 297 298 299 302 303 305
298 297 297 297 297 296 294 294 294 293 294 293 291 292 292 293 293 293 294 294 295 295 296 297 296 296 297 299 298 299 297 296 296 296 297 295 297 297 296 296 297 298 300 302 302
297 297 297 297 296 296 294 294 294 293 295 291 291 292 293 292 293 294 294 294 295 295 296 296 297 297 298 298 297 298 298 298 297 295 295 295 296 295 296 296 296 297 298 301 302
297 297 296 295 294 294 293 294 294 296 294 289 291 291 292 292 293 294 294 294 296 296 297 297 296 297 298 298 298 298 300 299 297 296 297 295 295 294 295 296 296 297 298 300 303
297 296 296 294 294 294 293 295 297 295 292 290 290 291 292 292 293 293 293 293 294 295 294 295 296 296 296 296 295 296 297 298 298 296 294 295 297 296 296 296 297 297 298 300 304
296 296 296 293 292 292 294 297 292 291 291 291 291 291 292 292 293 292 292 292 295 293 295 294 293 295 294 295 298 296 298 299 298 297 298 297 299 298 297 296 297 297 300 301 304
296 295 295 294 291 293 296 295 292 291 290 290 291 291 291 291 292 292 291 292 295 294 294 294 293 293 294 295 296 299 299 299 299 298 299 297 296 298 294 293 295 297 298 297 299
295 295 295 293 291 294 296 292 291 291 291 291 291 291 290 290 291 291 291 293 292 295 293 292 292 293 294 294 298 297 298 295 295 301 294 295 299 295 292 292 292 295 295 294 293
295 295 293 291 292 296 294 292 291 291 291 291 290 290 291 290 291 291 292 293 293 294 293 292 293 292 292 290 294 295 294 295 295 295 300 299 296 293 292 291 290 291 292 293 292
295 295 293 291 295 294 293 292 291 291 291 291 291 291 289 290 290 291 292 292 292 292 293 292 293 291 291 292 296 295 294 293 295 294 296 302 293 292 290 289 289 289 290 291 290
295 294 293 293 294 295 293 292 291 291 291 289 290 290 289 288 291 291 291 291 292 293 295 293 293 293 290 294 294 293 295 293 292 293 293 300 294 291 290 289 288 288 288 288 288
295 295 295 293 294 292 292 292 291 291 291 291 291 291 289 286 290 290 291 291 292 292 294 294 291 293 294 292 293 294 294 291 290 295 293 292 290 289 289 288 287 287 287 286 286
293 294 294 295 295 293 293 293 292 291 291 290 288 290 289 290 288 289 290 290 291 292 293 294 292 291 290 291 292 293 293 291 289 289 292 290 289 288 289 287 286 286 286 285 285
295 294 290 293 293 293 293 293 292 292 291 291 289 290 290 290 290 290 290 291 292 290 294 291 293 290 290 289 296 297 292 292 289 288 289 291 290 287 289 286 285 284 284 283 283
293 294 294 295 293 293 293 293 292 292 291 290 290 290 289 290 290 291 290 290 290 291 291 293 294 290 287 292 294 296 290 291 290 288 287 288 288 287 286 285 284 283 283 282 282
Wind_Speed
21 21 21 21 23 22 23 23 24 25 26 26 27 28 28 30 32 32 22 2 8 12 12 17 16 15 21 18 19 17 15 18 30 31 31 13 20 25 22 19 14 8 7 11 12
21 20 20 23 22 22 24 24 25 26 27 28 28 28 29 30 31 25 6 9 14 12 13 16 14 17 12 16 11 18 18 30 31 28 25 22 25 24 19 23 10 8 8 22 13
21 22 20 24 24 26 25 25 26 28 29 30 29 29 29 28 15 6 5 13 13 16 15 17 19 15 19 17 22 21 24 27 27 29 27 29 28 19 20 24 19 10 12 15 8
25 25 25 25 26 26 27 28 29 31 32 31 31 30 26 17 7 6 12 14 15 18 20 19 15 17 19 20 22 23 25 28 30 29 27 27 24 22 22 27 18 12 9 7 14
24 25 25 26 27 28 29 31 31 33 35 32 31 25 20 9 13 12 19 21 21 20 18 16 16 16 20 16 19 23 28 27 27 29 28 23 27 25 26 27 18 17 16 7 8
25 25 26 27 28 29 31 32 33 35 35 32 25 18 18 16 10 20 19 17 13 14 17 16 15 15 20 21 20 20 24 27 26 27 26 28 29 26 32 23 20 17 19 13 8
26 29 28 29 30 31 32 34 34 33 33 25 18 19 16 14 14 16 16 13 22 20 13 17 16 15 12 17 15 16 22 20 24 27 28 23 28 28 27 23 22 20 19 18 14
27 27 27 29 30 32 33 36 33 30 26 22 19 19 5 10 10 15 18 20 22 16 17 24 26 19 19 16 20 21 22 18 19 20 24 23 28 24 19 23 25 20 20 20 21
27 29 29 31 32 33 36 33 33 25 17 25 13 3 7 10 21 23 21 22 21 22 23 26 19 17 17 16 16 14 19 23 26 22 23 27 28 25 22 24 22 25 24 23 21
28 29 30 30 31 33 32 32 23 2 28 8 3 9 2 15 20 27 21 22 19 16 19 15 13 14 14 13 14 19 18 20 22 19 18 29 28 24 30 29 26 22 19 18 28
26 30 29 30 30 31 27 24 11 1 25 5 16 17 17 18 20 15 27 13 14 13 19 15 13 15 17 20 23 24 24 24 20 23 23 23 23 22 26 22 29 25 21 21 20
28 29 31 31 36 28 18 8 11 10 9 18 11 7 10 14 20 19 17 12 14 17 16 11 15 21 20 21 21 22 24 23 20 19 20 21 23 22 25 21 19 20 20 27 26
28 29 30 30 27 14 15 9 11 15 4 9 7 7 10 19 19 12 17 11 14 15 12 12 18 21 19 21 21 22 21 22 22 22 22 21 24 21 22 21 21 21 19 22 18
27 29 27 33 8 18 10 14 14 9 3 6 6 3 13 20 5 24 7 11 12 12 12 11 12 14 15 17 17 21 19 22 23 18 15 10 16 17 18 22 21 20 19 17 19
27 28 28 23 16 10 13 17 14 2 5 10 4 11 17 12 16 9 15 11 19 19 10 15 20 23 18 14 14 13 15 17 16 14 13 19 9 15 16 21 17 20 22 19 18
27 29 29 18 13 10 20 17 7 3 4 8 6 18 19 14 11 9 14 14 10 8 13 18 18 12 12 14 13 17 15 14 11 8 13 18 11 16 17 22 16 19 21 23 21
27 29 23 11 7 17 19 9 3 2 9 7 15 17 19 15 11 7 15 12 4 8 10 20 6 8 5 8 15 6 7 3 4 6 10 10 12 19 11 20 20 21 22 19 22
27 27 16 6 11 16 12 2 2 1 5 10 13 19 6 12 7 13 9 11 6 3 11 8 20 6 15 14 6 16 4 3 5 3 8 9 6 4 11 15 17 7 8 18 7
26 19 11 6 12 10 2 2 2 4 5 11 15 6 5 8 7 10 11 8 3 6 6 7 12 23 19 9 5 6 8 13 7 16 8 5 7 4 19 20 19 15 17 16 16
19 16 8 6 11 4 2 3 2 5 10 5 5 3 5 7 8 11 6 7 8 8 13 4 19 7 10 11 6 6 6 7 3 5 3 4 0 7 16 15 15 14 14 12 12
10 5 3 6 4 1 2 3 4 8 8 2 4 7 7 13 4 9 8 11 11 11 15 15 7 11 8 4 11 5 6 5 7 4 3 3 3 8 10 10 11 11 11 10 12
4 3 3 5 2 1 2 3 5 8 5 6 6 8 7 7 7 6 8 12 11 16 12 7 4 8 18 22 5 3 4 6 4 5 5 4 3 4 9 9 11 10 11 9 8
2 3 3 2 2 3 3 6 6 5 5 2 4 7 4 3 7 7 10 6 21 14 6 3 3 8 8 4 3 5 6 10 12 7 6 4 3 9 10 11 12 12 11 10 12
2 3 3 3 1 3 4 6 3 5 9 7 9 11 7 4 8 12 19 11 18 21 22 4 3 6 11 14 15 12 11 13 10 3 7 6 4 10 10 13 13 14 13 12 11
3 5 1 3 6 9 5 3 11 6 6 4 4 9 6 8 16 17 13 26 16 14 4 3 5 6 12 16 17 9 4 10 9 9 6 3 4 10 7 11 10 8 8 9 10
3 3 3 4 7 11 9 5 11 10 6 6 10 12 13 14 14 26 23 18 12 10 3 4 5 5 10 7 3 4 8 4 3 9 6 9 1 10 7 8 10 11 12 13 13
12 8 4 8 5 7 10 9 9 6 9 14 14 11 12 19 16 16 18 24 21 20 18 6 3 3 5 3 9 4 3 3 1 3 4 5 6 9 5 8 12 13 13 12 11
Wind_Direction
360 356 352 353 349 344 342 340 337 335 330 329 329 329 327 325 320 312 294 292 2 329 310 303 273 262 267 251 253 245 235 236 238 243 245 253 252 272 279 286 231 222 250 266 113
355 353 351 350 348 341 339 339 335 332 330 329 329 330 328 326 319 299 100 63 5 354 330 325 313 307 258 244 237 235 237 235 237 244 254 256 260 269 277 275 251 233 268 279 179
348 348 348 348 345 344 340 337 335 332 328 329 330 329 328 330 308 57 127 347 2 346 326 309 297 286 275 273 251 236 240 247 253 254 260 270 267 277 271 268 262 239 217 250 221
353 354 348 345 343 341 339 337 335 330 327 328 328 327 328 325 306 67 337 336 348 332 314 305 298 285 270 266 264 265 253 248 256 258 266 272 284 280 271 266 279 267 233 248 262
348 349 345 343 341 338 337 335 332 327 323 325 327 329 332 314 285 328 340 329 320 326 315 299 285 286 269 276 276 263 267 269 265 263 264 267 265 271 271 273 278 277 280 271 275
345 349 346 341 339 337 333 331 329 322 319 323 326 334 330 300 331 328 333 337 334 323 325 319 309 298 291 285 283 292 290 288 285 281 270 253 257 262 262 267 271 267 271 257 226
350 344 343 343 338 334 332 328 325 319 319 321 319 327 309 279 318 326 318 321 316 296 294 291 291 293 293 297 288 306 300 294 279 273 272 275 270 257 253 263 259 261 261 269 269
345 342 342 339 338 333 331 325 321 320 321 316 319 308 273 289 302 321 326 324 312 306 293 307 295 282 266 272 270 276 278 283 275 279 282 263 263 265 270 248 254 248 260 262 260
345 342 342 339 337 334 330 326 322 315 328 307 309 332 286 321 338 330 322 308 305 301 300 297 289 275 269 264 271 253 270 268 276 261 262 261 268 262 266 267 255 240 244 255 256
343 342 339 338 336 335 334 331 331 74 350 345 104 319 235 326 323 321 311 305 295 283 287 280 276 264 258 258 259 266 262 268 264 266 285 266 262 266 244 248 258 259 259 248 236
343 341 340 337 336 337 335 342 5 342 346 331 294 274 285 326 318 303 321 320 305 293 288 297 290 270 264 257 248 258 269 280 294 289 285 276 281 274 256 246 242 244 252 261 255
341 341 341 338 333 334 344 24 28 311 313 304 270 280 331 327 312 331 337 329 326 308 309 301 266 271 282 289 290 286 276 276 265 271 275 279 274 274 284 285 288 277 251 232 246
338 339 339 336 334 352 347 32 342 333 292 299 259 288 335 321 312 307 330 318 314 305 310 293 275 294 285 277 274 273 267 268 269 277 275 282 279 272 266 267 267 269 274 268 245
339 339 340 338 340 344 8 345 331 337 277 351 360 61 328 333 284 325 301 320 314 294 308 275 261 288 294 282 275 275 265 269 270 274 271 279 285 281 268 260 254 260 257 259 256
336 338 337 340 308 326 333 332 330 241 335 341 346 348 336 326 299 331 350 323 294 289 288 283 300 294 288 270 298 286 293 264 266 262 274 257 257 265 256 258 251 240 248 251 241
331 333 334 336 325 332 330 323 300 257 273 339 314 330 333 326 316 301 322 310 274 277 268 268 276 275 256 276 289 276 282 271 266 269 252 251 226 259 242 242 245 247 238 239 243
329 329 328 322 312 327 332 301 275 274 6 299 323 331 322 322 318 338 323 329 332 331 328 316 288 297 280 305 298 270 292 257 223 215 249 246 220 237 254 238 238 233 237 243 229
327 329 324 300 326 337 326 263 293 152 286 313 325 311 301 351 324 327 313 322 300 353 304 343 319 355 323 308 313 306 236 278 281 253 291 312 256 269 10 338 257 283 342 16 261
329 324 315 271 335 347 307 289 243 330 324 320 321 311 300 338 325 316 330 285 319 47 343 317 292 313 297 341 341 339 324 304 269 248 262 238 277 128 12 20 6 9 36 17 12
325 315 277 268 340 330 288 276 255 300 308 312 287 319 300 307 325 350 294 275 337 349 11 304 298 292 344 318 169 292 325 327 332 296 268 269 304 342 356 356 358 12 31 10 1
318 321 248 335 3 243 274 256 304 292 312 235 280 295 273 308 317 312 263 296 358 336 329 294 251 292 324 300 322 353 2 331 279 231 270 308 68 356 357 359 356 5 15 13 18
290 281 244 342 278 164 230 211 296 288 284 276 290 276 257 304 295 290 260 301 320 327 306 278 280 284 283 279 158 93 10 322 289 318 312 284 58 17 16 1 3 5 7 20 20
261 274 276 145 266 218 289 267 250 267 263 213 258 263 306 291 307 246 288 305 316 321 304 297 245 304 316 5 340 21 354 326 293 223 245 286 85 359 7 5 12 7 12 19 24
264 288 220 202 151 252 270 260 239 246 266 262 263 283 297 258 237 281 283 300 318 306 309 321 281 269 289 287 304 299 328 359 348 1 325 19 47 4 15 10 6 7 8 13 19
198 232 217 237 219 223 219 248 270 280 214 221 266 231 255 290 302 267 270 306 304 291 306 271 267 267 273 274 285 279 344 14 6 344 37 34 47 352 28 16 2 4 10 18 17
229 205 174 263 235 246 238 211 246 266 233 246 233 263 276 265 262 291 301 296 298 303 322 297 280 318 297 257 274 255 30 353 16 357 4 351 41 355 343 23 18 14 13 15 13
213 217 200 233 199 217 219 221 234 262 262 247 263 276 286 279 278 280 283 281 269 271 283 259 288 317 270 313 315 143 358 342 118 44 314 3 330 328 345 39 21 8 13 12 7